Terug naar catalogus

TITAN 3C TRANSTAGE DEB

LostMEO
NORAD 43449·DEBRIS·🇺🇸 United States

Gelanceerd Feb 9, 1969 vanaf Cape Canaveral Space Force Station

Loading…

Volgende Passages (komende 24 uur)

TLE

VerouderdSource: Space-Track

Epoch: Aug 4, 2026, 07:44 UTC

1 43449U 69013J   26216.32290084 -.00000164  00000-0  00000-0 0  9990
2 43449   1.5540  72.8105 0148464  69.8901 291.9254  0.96604663 29300

Volg TITAN 3C TRANSTAGE DEB in realtime met AllMySat

Download on the App Store